Regional Weather Roundup
Issued by NWS Upton, NY

Current Version | Previous Version | Text Only | Print | Product List | Glossary On
Versions: 1 2 3 4 5 6 7 8 9 10 11 12 13 14 15 16 17 18 19 20 21 22 23 24 25 26 27 28 29 30 31 32 33 34 35 36 37 38 39 40 41 42 43 44 45 46 47 48 49 50
000 ASUS41 KOKX 021804 RWROKX REGIONAL WEATHER ROUNDUP NATIONAL WEATHER SERVICE NEW YORK NY 200 PM EDT WED SEP 02 2015 NOTE: "FAIR" INDICATES FEW OR NO CLOUDS BELOW 12,000 FEET WITH NO SIGNIFICANT WEATHER AND/OR OBSTRUCTIONS TO VISIBILITY. NYZ071-072-176-178-NJZ106-104-021900- NEW YORK CITY METRO AREA CITY SKY/WX TMP DP RH WIND PRES REMARKS CENTRAL PARK MOSUNNY 90 64 42 W5 29.98F HX 91 LAGUARDIA APRT MOSUNNY 86 67 52 S9 29.95F KENNEDY INTL PTSUNNY 85 66 53 S14 29.98F NEWARK/LIBERTY PTSUNNY 88 70 55 S8 29.95F HX 93 BRNX BOT. GARD N/A 86 68 54 E5 29.95F TETERBORO PTSUNNY 89 63 41 SW8 29.93F HX 90 $$ NYZ177-179-078>081-021900- LONG ISLAND NEW YORK CITY SKY/WX TMP DP RH WIND PRES REMARKS FARMINGDALE MOSUNNY 84 65 52 S14 29.98F ISLIP PTSUNNY 85 59 41 SW13 29.96F SHIRLEY SUNNY 82 68 62 S13 29.98F WESTHAMPTON SUNNY 84 63 49 S13 29.99F MONTAUK POINT N/A 81 67 62 S8 29.98F $$ NYZ052-065-067-021900- HUDSON VALLEY CITY SKY/WX TMP DP RH WIND PRES REMARKS WHITE PLAINS MOSUNNY 88 62 41 W5 29.96F NEWBURGH MOSUNNY 84 68 58 VRB6 30.00S MONTGOMERY PTSUNNY 91 65 41 VRB6 29.96F HX 93 POUGHKEEPSIE SUNNY 89 61 38 VRB7 29.95F ALBANY MOSUNNY 86 65 49 VRB3 29.96F $$ NJZ001-105-106-008-010-013-015-019>022-104-021900- NEW JERSEY CITY SKY/WX TMP DP RH WIND PRES REMARKS NEWARK/LIBERTY PTSUNNY 88 70 55 S8 29.95F HX 93 TETERBORO PTSUNNY 89 63 41 SW8 29.93F HX 90 CALDWELL MOSUNNY 89 61 38 NW7 29.95F MORRISTOWN PTSUNNY 91 61 35 CALM 29.96F HX 91 SOMERVILLE MOSUNNY 91 62 37 VRB5 29.93F HX 91 SUSSEX LGT RAIN 88 65 46 VRB6 29.98F HX 90 ANDOVER N/A 89 65 44 VRB5 29.98F HX 91 TRENTON MOSUNNY 87 68 52 SW5 29.96F HX 90 MILLVILLE PTSUNNY 86 69 56 CALM 29.97F HX 90 ATLANTIC CITY PTSUNNY 85 70 60 SE10 29.98F WRIGHTSTOWN PTSUNNY 87 71 58 W5 29.94F HX 92 TOMS RIVER CLOUDY 86 68 54 CALM 29.97F BELMAR PTSUNNY 84 66 54 S8 29.98F $$ PAZ047>061-062-071-021900- EASTERN PENNSYLVANIA CITY SKY/WX TMP DP RH WIND PRES REMARKS PHILADELPHIA PTSUNNY 90 64 42 SW10G16 29.96F HX 91 ALLENTOWN MOSUNNY 90 66 45 VRB3 29.97F HX 92 SCRANTON SUNNY 86 65 49 NW7 30.01F $$ CTZ002-004>006-009-010-012-RIZ004-006-007-MAZ004-011-015-021900- SOUTHERN NEW ENGLAND IN CT CITY SKY/WX TMP DP RH WIND PRES REMARKS BRADLEY INTL MOSUNNY 89 64 43 NW9 29.93F HX 90 HARTFORD SUNNY 90 62 39 N6 29.93F HX 90 DANBURY SUNNY 86 61 42 W6 29.98F WTRBRY/OXFORD MOSUNNY 84 63 48 VRB6 30.01F BRIDGEPORT SUNNY 86 68 54 SW13 29.95F MERIDEN SUNNY 90 60 36 W9 29.94F NEW HAVEN MOSUNNY 83 69 62 S9 29.96F CHESTER NOT AVBL GROTON SUNNY 79 70 74 S9 29.95F WILLIMANTIC SUNNY 88 63 43 W8 29.94F IN RI CITY SKY/WX TMP DP RH WIND PRES REMARKS PROVIDENCE MOSUNNY 87 63 44 W8 29.94F BLOCK ISLAND SUNNY 79 66 65 SW16 29.98F WESTERLY SUNNY 82 68 62 S13 29.97F IN MA CITY SKY/WX TMP DP RH WIND PRES REMARKS BOSTON SUNNY 89 63 41 W12G21 29.91F HX 90 WORCESTER SUNNY 83 58 42 SW13 29.98F WESTFIELD MOSUNNY 87 63 44 W9G17 29.94F PROVINCETOWN N/A 81 64 57 SW14 29.94F NANTUCKET N/A N/A N/A N/A MISG 29.98F $$ ANZ330-335-338-340-345-350-353-355-021900- COASTAL MARINE OBSERVATIONS STATION/POSITION TIME SKY/WX TEMP WIND PRES VSBY WAVE AIR SEA DIR/SP/G HT/PER (UTC) (F) (DEG/KT/KT) (MB) (MI) (FT/S) NY HARB ENTRANCE 1650 76 78 190/ 8/ 10 1015.4 2/14 4S FIRE IS NOT AVBL 20S FIRE ISLAND 1650 75 75 200/ 6/ 8 1015.8 2/ 7 GREAT SOUTH BAY 1730 76 79 210/ 10/ 12 N/A 23SW MTP 1750 75 74 220/ 8/ 8 1015.0 1/ 8 HUDSON CANYON NOT AVBL KINGS POINT 1700 83 74 190/ 7/ 11 1014.3 EXECUTION ROCKS 1700 82 170/ 6/ 8 N/A CENTRAL LI SOUND NOT AVBL EASTERN LI SOUND 1700 75 71 200/ 4/ 6 N/A ROBBINS REEF 1700 76 170/ 14/ 16 1013.8 $$ >>>>>>>>>>>>>>>>>>>>>>>>>>>> KEY <<<<<<<<<<<<<<<<<<<<<<<<<<< > < > SKY/WX - SKY CONDITION/PRESENT WEATHER < > TMP - TEMPERATURE IN FAHRENHEIT < > DP - DEWPOINT IN FAHRENHEIT < > RH - RELATIVE HUMIDITY IN PERCENT < > WIND - DIRECTION AND SPEED IN MPH < > PRES - MEAN SEA LEVEL PRESSURE IN INCHES OF HG < > WCI - WIND CHILL INDEX < > VSB - VISIBILITY IN MILES < > HX - HEAT INDEX < > TC - TEMPERATURE IN CELSIUS < > VRB - VARIABLE WIND DIRECTION < > < >>>>>>>>>>>>>>>>>>>>>>>>>>>> KEY <<<<<<<<<<<<<<<<<<<<<<<<<<<

USA.gov is the U.S. government's official web portal to all federal, state and local government web resources and services.